カタログに戻る

THOR ABLESTAR DEB

運用中LEO
NORAD 48811·DEBRIS·🇺🇸 United States

打ち上げ Jun 29, 1961 から Cape Canaveral Space Force Station

Loading…

次のパス (今後24時間)

TLE

最新Source: Space-Track

元期: Sep 13, 2026, 03:05 UTC

1 48811U 61015MP  26256.12902972  .00000213  00000-0  26564-3 0  9990
2 48811  67.0599 145.3675 0096607  81.0244 280.1751 13.79927977644760

AllMySatでTHOR ABLESTAR DEBをリアルタイム追跡

Download on the App Store